Location: Ripley
(48.3812°N, 115.4473°W)
Time: 20:15:25
(UTC+00:00)

RS-15 - Pass Details

Date: 28 June 2022
Orbit: 1881 x 2163 km, 64.8° (Epoch: 19 August)

Event Time Altitude Azimuth Distance (km) Brightness Sun altitude
Rises 05:37:04 0° 310° (NW) 5,681 11.9 -12.8°
Reaches altitude 10° 05:40:47 10° 316° (NW) 4,687 11.3 -13.1°
Maximum altitude 05:52:44 49° 30° (NNE) 2,621 8.9 -14.1°
Drops below altitude 10° 06:04:26 10° 104° (ESE) 4,601 9.6 -14.9°
Sets 06:08:01 0° 110° (ESE) 5,571 10.0 -15.1°
